SCP
1 1 0 0 1 1 0 0 0 1 1 1 1 1 1 1 1 1 0 0 0 0 0 0 0 1 1 1 1 1 1 1 1 0 0 0 0 0 0 0 0 0 0
1 1 1 1 0 0 0 0 0 0 1 1 1 1 1 1 1 1 0 0 0 0 0 0 0 1 1 1 1 1 1 1 1 0 0 0 0 0 0 0 0 0 0
1 1 1 1 0 0 0 0 0 0 0 1 1 1 1 1 1 0 0 0 0 0 0 0 0 0 0 1 1 0 0 0 0 0 0 0 0 0 0 0 0 0 0
1 1 1 0 0 0 0 0 0 0 0 0 0 1 1 0 0 0 0 0 0 0 0 0 0 0 0 0 0 0 0 0 0 0 0 0 0 0 0 0 0 0 0
1 1 1 0 0 0 0 0 0 0 0 0 0 0 0 0 0 0 0 0 0 0 0 0 0 0 0 0 0 0 0 0 0 0 0 0 0 0 0 0 0 0 0
1 1 1 1 0 0 0 0 0 0 0 0 0 0 0 0 0 0 0 0 0 0 0 0 0 0 0 0 0 0 0 0 0 0 0 0 0 0 0 0 0 0 1
1 1 1 1 1 0 0 0 0 0 0 0 0 0 0 0 0 0 0 0 0 0 0 0 0 0 0 0 0 0 0 1 1 0 0 0 0 0 0 0 0 1 1
1 1 1 1 1 1 1 1 1 1 1 1 0 0 0 0 0 0 0 0 0 0 0 0 0 0 0 0 0 1 1 1 1 0 0 0 0 0 0 0 0 1 1
1 1 1 1 1 1 1 1 1 1 1 1 1 0 0 0 0 0 0 0 0 0 0 0 0 0 0 0 0 1 1 1 0 0 0 0 0 0 0 0 0 1 1
1 1 1 1 1 1 1 1 1 1 1 1 1 1 0 0 0 0 0 0 0 0 0 0 0 0 0 0 0 0 1 0 0 0 0 0 0 0 0 0 0 0 0
2 1 1 1 2 2 1 1 1 2 2 1 1 1 0 0 0 0 0 0 0 0 0 0 0 0 0 0 0 0 1 0 0 1 1 0 0 0 0 0 0 0 0
2 1 1 2 2 2 1 1 2 2 2 1 2 2 1 1 0 0 1 0 0 0 0 0 0 0 0 0 1 1 1 1 1 1 1 1 0 0 0 0 0 0 0
2 2 2 2 3 2 2 1 2 2 2 2 2 3 2 1 1 0 1 1 0 0 0 0 0 0 0 0 1 1 1 0 1 1 1 1 1 0 0 0 0 1 1
2 2 2 3 3 3 2 1 1 2 2 2 3 3 3 2 1 1 1 1 0 0 1 1 0 0 0 0 0 1 1 0 1 1 1 1 1 1 1 1 1 1 1
3 3 3 3 3 3 3 2 1 1 1 2 3 4 3 3 2 1 1 1 1 1 1 1 0 0 0 0 1 1 1 0 1 1 1 1 1 1 1 1 1 1 1
4 5 5 5 4 3 3 2 1 1 1 2 2 3 3 3 2 1 1 1 1 1 1 1 1 1 1 1 1 1 1 1 1 1 1 1 1 1 1 1 1 1 1
5 6 7 6 4 3 3 2 2 1 1 1 2 3 3 2 2 1 1 1 1 1 1 1 1 1 1 1 1 1 1 1 1 1 1 1 1 1 1 1 1 1 1
6 7 6 5 4 3 3 2 2 1 1 2 3 3 3 2 2 1 1 1 1 1 1 1 1 1 1 1 1 1 1 1 1 1 1 1 1 1 1 1 1 1 1
7 7 6 5 4 4 3 3 2 2 2 3 3 3 3 2 2 2 1 1 1 1 1 1 1 1 1 1 1 1 1 1 1 2 2 2 2 2 2 2 1 1 1
8 7 6 6 5 4 3 3 3 3 3 4 4 3 3 3 3 2 1 1 1 1 1 1 1 1 1 1 1 1 1 1 2 2 2 2 2 2 2 2 2 2 2
8 8 7 7 6 5 4 4 4 3 3 4 4 3 4 4 4 3 2 1 1 1 1 1 1 1 1 1 1 1 1 1 1 2 2 2 2 3 3 3 3 3 3
9 8 7 7 7 5 4 4 4 3 3 3 4 3 4 4 4 4 3 2 1 1 1 1 1 1 1 1 1 1 1 1 1 1 2 2 2 2 2 3 4 4 4
8 8 7 7 7 5 5 4 4 3 3 3 3 3 3 3 3 3 2 2 1 1 1 1 1 1 1 1 1 1 1 1 1 1 1 1 2 2 2 2 3 4 4
7 7 7 7 6 6 5 4 4 3 3 3 3 3 3 3 2 2 2 2 1 1 1 1 1 1 1 2 2 1 1 1 1 1 1 1 1 2 2 2 2 2 3
6 7 7 7 6 6 5 5 4 4 3 3 3 3 3 3 2 2 2 2 2 2 1 1 1 2 2 2 2 2 1 1 1 1 1 1 1 1 2 2 2 2 2
6 7 7 7 6 6 5 5 5 4 3 3 3 3 3 2 2 2 2 2 2 2 2 2 2 2 2 2 2 2 2 1 1 1 1 1 1 1 1 1 1 2 2
Wind_Speed
12 12 11 11 11 12 12 12 12 12 13 13 13 13 13 13 13 13 13 13 13 13 13 12 12 12 12 11 11 12 12 12 13 13 13 13 13 11 11 11 12 11 13
15 13 13 11 12 12 12 12 12 12 12 12 12 12 12 12 12 12 12 12 12 12 12 12 11 11 11 11 11 11 11 11 11 12 13 12 11 10 9 9 12 9 13
16 14 13 12 12 11 12 12 12 12 12 12 12 12 11 11 11 12 12 12 12 11 11 11 11 10 10 10 10 10 9 9 10 11 11 8 8 9 11 13 14 13 12
17 14 13 13 12 12 11 11 11 11 11 11 11 11 10 11 11 11 11 11 11 11 11 10 10 10 9 9 9 9 8 8 8 8 5 7 7 10 12 12 12 12 12
17 15 14 13 12 12 11 11 11 11 11 11 11 10 10 10 10 11 11 10 10 10 10 10 9 9 9 8 8 7 6 6 6 5 5 7 7 10 12 12 11 11 11
17 16 14 13 12 12 11 11 11 10 10 10 10 10 9 9 9 10 10 10 10 10 10 9 9 9 8 8 7 6 4 3 4 3 6 7 7 10 11 11 11 11 11
17 16 14 14 13 12 11 11 10 10 10 10 10 9 9 9 8 9 9 10 9 10 9 8 8 8 8 7 6 5 3 3 3 4 6 7 8 11 11 11 11 11 10
17 16 14 14 13 12 11 10 10 9 9 9 9 9 9 8 8 8 9 9 9 9 9 8 8 8 7 5 4 3 3 4 3 7 8 8 10 11 11 11 10 10 10
16 16 13 13 12 12 11 10 9 9 8 8 8 9 8 8 8 8 9 9 9 8 8 8 8 7 6 4 3 2 3 4 0 4 9 8 10 11 11 11 10 10 9
12 13 13 13 12 11 10 10 10 9 8 8 8 8 8 8 8 9 9 9 8 8 7 7 7 6 5 4 3 3 4 5 2 6 7 8 11 11 10 10 10 9 9
9 9 10 11 10 10 10 10 10 9 8 8 7 8 7 5 6 6 9 9 8 7 7 7 6 6 5 5 5 5 4 3 2 5 6 11 11 11 10 9 9 9 9
9 9 8 8 8 8 8 8 6 6 7 5 5 6 4 2 3 6 9 9 8 7 7 7 7 6 6 4 5 6 3 2 3 6 7 13 11 11 10 9 9 9 8
9 8 8 8 6 6 5 5 3 3 4 4 5 4 3 3 4 5 4 5 5 6 5 6 6 4 4 2 3 3 3 1 3 6 8 12 11 10 9 9 9 9 9
8 7 8 8 6 5 4 3 3 3 3 3 4 4 4 2 3 3 2 3 3 2 2 3 2 3 2 2 1 1 0 1 3 5 7 12 11 10 10 9 9 9 9
9 7 8 7 6 4 3 0 3 3 3 4 4 3 3 3 3 3 2 2 2 2 2 2 1 2 1 1 1 1 1 2 3 5 6 11 11 10 10 10 10 9 9
8 8 8 8 6 4 2 0 1 2 3 3 3 4 4 3 3 3 2 1 2 1 1 1 2 1 1 1 1 1 1 2 3 5 6 7 10 10 10 10 10 10 10
8 8 8 8 7 5 4 3 2 2 3 3 3 3 3 4 3 2 2 2 2 1 2 1 1 1 2 2 2 2 2 2 2 4 6 5 6 9 10 11 10 10 10
9 8 7 7 8 6 3 2 1 2 2 3 3 3 3 4 3 2 2 2 2 2 2 2 2 2 1 1 1 1 1 2 3 3 4 5 5 6 8 11 11 10 11
9 8 6 5 7 6 5 3 1 1 2 1 2 3 3 3 3 2 1 2 2 2 2 3 2 1 1 1 2 2 2 2 3 4 4 5 5 5 6 9 12 11 12
10 9 7 6 6 5 4 3 1 1 2 2 2 3 3 3 3 2 2 3 3 2 1 1 1 1 1 2 3 2 2 2 2 2 4 4 4 6 7 7 7 8 12
10 9 8 7 6 4 3 3 2 2 2 2 3 4 4 4 4 3 1 2 2 2 3 3 2 3 3 2 1 1 1 1 2 2 2 2 3 4 5 6 6 4 6
10 9 9 7 7 6 4 3 2 2 3 3 2 4 4 4 4 4 3 2 2 2 2 2 2 1 2 2 2 0 1 1 1 2 1 2 2 1 2 5 5 5 4
11 10 9 8 8 7 5 4 2 1 1 1 3 3 3 4 4 2 4 3 2 2 2 3 3 3 2 2 1 2 1 1 1 1 1 1 2 1 1 2 4 5 5
11 10 8 8 7 6 6 5 5 4 3 3 2 3 3 3 3 3 3 2 2 2 1 3 3 3 3 2 2 2 2 2 2 1 1 0 1 1 1 1 1 3 4
10 10 9 8 7 7 6 5 4 3 2 2 2 3 3 2 3 3 3 2 2 2 2 2 1 2 2 3 2 2 2 2 2 2 2 1 0 0 0 1 0 0 2
10 10 10 9 7 7 6 6 5 4 3 2 2 2 2 2 2 3 3 2 2 2 2 2 2 3 2 3 2 2 2 2 2 2 3 3 2 1 1 1 1 0 0
Wind_Direction
109 106 100 92 88 91 92 93 95 96 95 94 92 90 90 91 93 94 94 97 100 102 103 103 102 102 100 98 97 96 97 98 101 103 105 105 106 108 112 116 111 102 108
113 110 102 95 91 91 93 94 94 96 97 96 94 93 94 94 96 97 96 97 99 102 105 106 104 104 104 103 102 103 106 109 111 115 114 111 110 110 107 103 100 109 113
115 115 108 98 95 93 94 96 96 94 96 98 97 95 95 97 99 100 100 101 101 102 105 107 107 108 108 109 109 112 118 121 124 127 124 113 112 109 102 101 106 112 114
117 116 108 105 100 96 95 95 96 95 97 100 99 98 98 98 100 101 102 104 106 107 106 105 106 109 110 113 118 122 128 134 141 146 135 121 117 111 109 111 114 115 115
109 107 109 110 104 101 99 98 98 97 99 101 101 101 100 101 104 104 104 105 106 106 106 106 105 106 109 113 119 127 137 151 161 161 120 108 105 118 117 116 116 117 118
115 112 114 114 110 107 104 102 101 102 102 104 103 103 103 103 104 106 106 106 107 108 107 106 108 107 110 115 123 134 149 173 182 141 118 117 115 124 122 120 120 120 122
115 116 121 120 117 115 112 108 107 107 106 105 104 105 106 106 103 105 108 108 110 112 113 112 111 109 113 120 131 148 169 189 200 128 117 111 118 128 125 123 122 123 125
118 119 124 125 125 123 120 117 115 113 113 114 113 111 112 112 110 111 113 112 110 113 117 117 117 115 118 127 143 175 211 243 169 124 114 111 124 129 128 128 129 128 129
123 128 135 136 134 132 128 125 122 120 121 123 124 124 123 121 120 118 120 115 114 117 120 120 120 121 128 141 164 208 248 275 275 126 118 117 129 131 132 133 135 136 136
119 127 138 143 142 145 138 135 132 130 131 135 136 137 135 131 132 132 130 123 123 126 128 130 130 134 144 164 194 232 269 296 212 111 109 125 133 134 137 141 141 141 140
114 123 134 135 144 146 142 139 144 143 146 148 151 151 150 152 144 145 129 131 133 137 143 148 152 157 166 185 210 236 265 252 136 106 109 129 138 140 141 145 146 145 147
134 128 133 130 139 143 135 141 155 159 153 172 156 160 171 153 129 125 131 140 148 154 160 174 177 181 194 194 204 226 246 218 120 114 122 139 142 145 148 152 151 153 156
134 128 132 123 125 118 120 146 146 142 143 164 149 154 154 144 134 132 145 152 165 175 182 174 192 207 207 197 188 201 225 175 107 111 134 144 148 152 156 158 159 161 162
133 132 126 116 105 92 104 123 136 137 145 145 147 162 154 155 145 139 149 166 172 181 173 174 194 191 179 173 189 216 145 88 102 111 139 149 153 157 160 163 164 168 170
139 134 116 108 101 95 85 138 140 130 133 142 144 161 155 156 147 143 156 177 169 164 171 166 183 156 151 170 199 172 90 86 111 118 135 156 158 165 170 173 175 177 180
140 137 127 127 125 127 141 208 112 129 131 134 155 155 154 137 134 141 153 175 160 157 135 153 172 151 193 185 203 181 154 134 133 137 145 160 167 171 178 182 185 187 189
145 139 139 147 147 157 172 197 167 153 140 136 138 141 148 135 143 157 161 176 154 143 138 175 190 173 204 195 198 199 182 172 162 150 154 162 171 181 185 188 189 192 196
148 146 165 167 152 164 173 190 214 150 132 138 146 146 148 140 164 181 174 164 162 173 174 184 223 212 201 197 195 218 190 170 180 173 172 173 171 176 187 192 190 192 199
150 154 167 155 153 164 168 178 200 134 125 145 152 147 152 159 172 190 159 149 193 198 192 209 182 196 197 212 209 206 207 192 190 195 184 182 174 168 169 187 193 196 201
155 159 165 163 160 164 162 171 209 163 155 171 163 146 157 181 185 198 182 176 208 195 189 188 164 214 227 227 244 217 211 197 187 195 202 190 181 180 176 172 187 201 204
159 160 164 171 165 171 173 178 183 180 191 184 178 163 176 197 189 200 208 181 207 202 197 194 191 204 223 222 217 257 266 202 183 193 197 197 191 185 171 160 175 184 194
162 165 169 174 171 180 178 176 187 185 203 183 178 162 184 193 194 193 189 212 209 205 210 215 194 229 245 221 179 169 298 314 298 238 190 189 184 164 164 170 169 175 179
168 173 176 176 177 184 176 177 186 173 238 183 172 172 195 197 200 211 187 214 219 215 198 208 211 217 230 259 217 173 196 229 289 296 250 210 142 143 193 164 175 179 184
173 171 168 172 177 178 181 193 192 194 201 195 180 171 193 204 201 194 203 211 229 247 208 219 207 209 216 242 248 219 201 178 181 263 295 318 104 151 191 225 214 178 173
171 167 166 168 172 176 188 196 202 208 205 193 174 171 186 199 218 206 194 202 215 233 239 245 196 212 222 239 244 238 229 207 206 197 235 241 247 238 182 190 141 72 171
167 166 164 163 171 177 188 197 198 206 210 204 185 175 193 200 213 209 193 194 202 213 232 233 227 226 231 251 266 255 223 212 204 202 217 220 215 240 328 19 60 54 331